Lincoln, IL

3:39 AM CDT on March 26, 2017 (GMT -0500)
Lincoln

Weather History for KAAA - January, 2014

Change the Weather History Date:

Sunday, January 26, 2014

  Actual Average (KSPI) Record (KSPI)
Temperature  
Mean Temperature 32 °F -  
Max Temperature 48 °F 32 °F 66 °F (1911)
Min Temperature 15 °F 15 °F -9 °F (1897)
Degree Days  
Heating Degree Days 33    
Moisture  
Dew Point 20 °F    
Average Humidity 59    
Maximum Humidity 76    
Minimum Humidity 42    
Precipitation  
Precipitation 0.00 in - - ()
Sea Level Pressure  
Sea Level Pressure 29.63 in    
Wind  
Wind Speed 10 mph (WSW)    
Max Wind Speed 25 mph    
Max Gust Speed 37 mph    
Visibility 10 miles    
Events Snow    
Averages and records for this station are not official NWS values.
T = Trace of Precipitation, MM = Missing Value Source: NWS Daily Summary

Daily Weather History Graph

Daily Weather History Graph

Search for Another Location

Airport or City:

Trip Planner

Search our weather history database for the weather conditions in past years. The results will help you decide how hot, cold, wet, or windy it might be!

Date:

Astronomy

Jan. 26, 2014 Rise Set
Actual Time 7:11 AM CST 5:08 PM CST
Civil Twilight 6:42 AM CST 5:38 PM CST
Nautical Twilight 6:09 AM CST 6:10 PM CST
Astronomical Twilight 5:37 AM CST 6:43 PM CST
Moon 2:48 AM CST 12:58 PM CST
Length of Visible Light 10h 55m
Length of Day
9h 57m
Waning Crescent, 23% of the Moon is Illuminated
Jan 26
Waning Crescent
Jan 30
New
Feb 6
First Quarter
Feb 14
Full
Feb 22
Last Quarter

Hourly Weather History & Observations

Time (CST) Temp. Windchill Dew Point Humidity Pressure Visibility Wind Dir Wind Speed Gust Speed Precip Events Conditions
12:15 AM 18.0 °F 11.1 °F 7.5 °F 64% 29.87 in 10.0 mi South 4.6 mph - N/A   Overcast
12:35 AM 18.3 °F 11.5 °F 8.4 °F 65% 29.86 in 10.0 mi South 4.6 mph - N/A   Overcast
12:55 AM 18.9 °F 8.0 °F 8.2 °F 63% 29.84 in 10.0 mi South 9.2 mph - N/A   Overcast
1:15 AM 19.2 °F 8.4 °F 7.7 °F 61% 29.81 in 10.0 mi South 9.2 mph - N/A   Overcast
1:35 AM 19.4 °F 6.6 °F 7.9 °F 61% 29.77 in 10.0 mi SSE 12.7 mph - N/A   Overcast
1:55 AM 19.4 °F 7.9 °F 7.0 °F 59% 29.76 in 10.0 mi SSE 10.4 mph - N/A   Overcast
2:15 AM 19.9 °F 7.9 °F 7.9 °F 60% 29.73 in 10.0 mi SSE 11.5 mph 16.1 mph N/A   Overcast
2:35 AM 20.1 °F 7.5 °F 8.1 °F 60% 29.71 in 10.0 mi SSE 12.7 mph - N/A   Overcast
2:55 AM 20.3 °F 9.0 °F 9.3 °F 63% 29.69 in 10.0 mi SSE 10.4 mph - N/A   Overcast
3:15 AM 20.8 °F 9.0 °F 9.7 °F 62% 29.67 in 10.0 mi South 11.5 mph 18.4 mph N/A   Overcast
3:35 AM 21.2 °F 7.3 °F 10.6 °F 64% 29.62 in 10.0 mi SSE 16.1 mph 21.9 mph N/A   Overcast
3:55 AM 21.9 °F 7.8 °F 10.2 °F 61% 29.58 in 10.0 mi South 17.3 mph 24.2 mph N/A   Overcast
4:15 AM 22.5 °F 8.5 °F 10.6 °F 60% 29.56 in 10.0 mi South 17.3 mph 27.6 mph N/A   Overcast
4:35 AM 23.2 °F 9.4 °F 10.4 °F 58% 29.56 in 10.0 mi South 17.3 mph 25.3 mph N/A   Overcast
4:55 AM 24.4 °F 12.4 °F 10.6 °F 56% 29.56 in 10.0 mi SSW 13.8 mph 27.6 mph N/A   Overcast
5:15 AM 26.6 °F 14.7 °F 10.0 °F 50% 29.54 in 10.0 mi SSW 15.0 mph 34.5 mph N/A   Overcast
5:35 AM 26.4 °F 16.0 °F 11.5 °F 53% 29.55 in 10.0 mi SSW 11.5 mph 24.2 mph N/A   Overcast
5:55 AM 27.3 °F 16.1 °F 12.9 °F 55% 29.53 in 10.0 mi South 13.8 mph 20.7 mph N/A   Overcast
6:15 AM 28.8 °F 19.0 °F 14.9 °F 56% 29.52 in 10.0 mi South 11.5 mph 20.7 mph N/A   Overcast
6:35 AM 30.7 °F 22.0 °F 16.7 °F 56% 29.52 in 10.0 mi SSW 10.4 mph 18.4 mph N/A   Overcast
6:55 AM 31.8 °F 23.9 °F 17.6 °F 56% 29.52 in 10.0 mi SSW 9.2 mph 16.1 mph N/A   Overcast
7:15 AM 32.7 °F 25.7 °F 18.9 °F 57% 29.52 in 10.0 mi SW 8.1 mph 17.3 mph N/A   Overcast
7:35 AM 35.1 °F 26.9 °F 22.1 °F 59% 29.52 in 10.0 mi SW 11.5 mph 21.9 mph N/A   Overcast
7:55 AM 35.8 °F 28.3 °F 23.0 °F 60% 29.52 in 10.0 mi SW 10.4 mph 21.9 mph N/A   Overcast
8:15 AM 36.7 °F 32.0 °F 24.8 °F 62% 29.53 in 10.0 mi WSW 5.8 mph - N/A   Overcast
8:35 AM 39.0 °F 34.0 °F 25.9 °F 59% 29.53 in 10.0 mi SW 6.9 mph - N/A   Scattered Clouds
8:55 AM 41.0 °F 35.2 °F 27.7 °F 59% 29.52 in 10.0 mi WSW 9.2 mph 18.4 mph N/A   Scattered Clouds
9:15 AM 41.4 °F 34.7 °F 29.7 °F 63% 29.52 in 10.0 mi WSW 11.5 mph 16.1 mph N/A   Overcast
9:35 AM 41.9 °F 36.9 °F 30.7 °F 65% 29.53 in 10.0 mi WSW 8.1 mph - N/A   Overcast
9:55 AM 42.4 °F 38.1 °F 31.1 °F 64% 29.54 in 10.0 mi WSW 6.9 mph - N/A   Overcast
10:15 AM 43.7 °F 37.3 °F 31.5 °F 62% 29.55 in 10.0 mi WSW 12.7 mph 19.6 mph N/A   Overcast
10:35 AM 43.9 °F 37.9 °F 31.1 °F 61% 29.56 in 10.0 mi West 11.5 mph 21.9 mph N/A   Overcast
10:55 AM 44.2 °F 38.0 °F 31.1 °F 60% 29.56 in 10.0 mi West 12.7 mph 19.6 mph N/A   Overcast
11:15 AM 44.6 °F 37.8 °F 31.1 °F 59% 29.56 in 10.0 mi West 15.0 mph 21.9 mph N/A   Overcast
11:35 AM 44.6 °F 39.2 °F 32.0 °F 61% 29.56 in 10.0 mi NW 10.4 mph 20.7 mph N/A   Overcast
11:55 AM 43.7 °F 39.7 °F 32.4 °F 64% 29.55 in 10.0 mi WNW 6.9 mph - N/A   Overcast
12:15 PM 44.2 °F 41.0 °F 32.4 °F 63% 29.55 in 10.0 mi West 5.8 mph - N/A   Overcast
12:35 PM 46.4 °F 40.1 °F 31.1 °F 55% 29.54 in 10.0 mi West 15.0 mph 23.0 mph N/A   Mostly Cloudy
12:55 PM 46.0 °F 40.2 °F 30.2 °F 54% 29.54 in 10.0 mi West 12.7 mph 25.3 mph N/A   Clear
1:15 PM 46.2 °F 42.7 °F 30.9 °F 55% 29.53 in 10.0 mi WNW 6.9 mph 17.3 mph N/A   Clear
1:35 PM 47.3 °F - 31.6 °F 55% 29.54 in 10.0 mi West 6.9 mph - N/A   Clear
1:55 PM 48.2 °F - 30.0 °F 49% 29.54 in 10.0 mi West 9.2 mph 18.4 mph N/A   Clear
2:15 PM 48.4 °F - 29.3 °F 48% 29.54 in 10.0 mi West 10.4 mph 20.7 mph N/A   Clear
2:35 PM 48.2 °F - 28.4 °F 46% 29.54 in 10.0 mi West 8.1 mph 20.7 mph N/A   Clear
2:55 PM 48.0 °F - 25.9 °F 42% 29.54 in 10.0 mi West 12.7 mph 24.2 mph N/A   Clear
3:15 PM 46.9 °F - 26.1 °F 44% 29.55 in 10.0 mi West 6.9 mph - N/A   Clear
3:35 PM 47.8 °F - 27.5 °F 45% 29.56 in 10.0 mi WSW 3.5 mph - N/A   Clear
3:55 PM 47.3 °F - 28.9 °F 49% 29.56 in 10.0 mi West 3.5 mph - N/A   Scattered Clouds
4:15 PM 46.4 °F 43.5 °F 28.4 °F 50% 29.56 in 10.0 mi WSW 5.8 mph - N/A   Scattered Clouds
4:35 PM 45.0 °F - 29.1 °F 54% 29.56 in 10.0 mi Calm Calm - N/A   Clear
4:55 PM 44.1 °F 41.5 °F 29.3 °F 56% 29.56 in 10.0 mi SW 4.6 mph - N/A   Clear
5:15 PM 42.8 °F 40.1 °F 29.8 °F 60% 29.56 in 10.0 mi SW 4.6 mph - N/A   Clear
5:35 PM 42.3 °F 38.6 °F 30.2 °F 62% 29.55 in 10.0 mi SSW 5.8 mph - N/A   Scattered Clouds
5:55 PM 42.3 °F 38.6 °F 30.6 °F 63% 29.55 in 10.0 mi SW 5.8 mph - N/A   Mostly Cloudy
6:15 PM 43.0 °F 38.8 °F 30.6 °F 62% 29.54 in 10.0 mi SSW 6.9 mph - N/A   Mostly Cloudy
6:35 PM 43.2 °F 38.4 °F 30.7 °F 62% 29.53 in 10.0 mi SSW 8.1 mph - N/A   Mostly Cloudy
6:55 PM 43.9 °F 38.3 °F 30.9 °F 60% 29.53 in 10.0 mi SW 10.4 mph - N/A   Overcast
7:15 PM 43.9 °F 39.3 °F 31.1 °F 61% 29.54 in 10.0 mi SW 8.1 mph - N/A   Overcast
7:35 PM 43.3 °F 37.2 °F 31.5 °F 63% 29.54 in 10.0 mi WSW 11.5 mph 17.3 mph N/A   Overcast
7:55 PM 33.3 °F 22.5 °F 25.7 °F 74% 29.66 in 10.0 mi NNW 17.3 mph 34.5 mph N/A   Overcast
8:15 PM 31.6 °F 21.2 °F 24.4 °F 75% 29.71 in 10.0 mi NNW 15.0 mph 31.1 mph N/A   Overcast
8:35 PM 31.1 °F 20.1 °F 23.9 °F 75% 29.74 in 10.0 mi NW 16.1 mph 31.1 mph N/A   Overcast
8:55 PM 27.3 °F 13.6 °F 20.7 °F 76% 29.80 in 7.0 mi NNW 20.7 mph 29.9 mph N/A Snow Light Snow
9:15 PM 24.6 °F 10.9 °F 15.3 °F 68% 29.83 in 7.0 mi NNW 18.4 mph 33.4 mph N/A Snow Light Snow
9:35 PM 22.8 °F 8.9 °F 14.4 °F 70% 29.87 in 10.0 mi NNW 17.3 mph 29.9 mph N/A Snow Light Snow
9:55 PM 20.5 °F 5.0 °F 7.2 °F 56% 29.89 in 10.0 mi NW 19.6 mph 35.7 mph N/A   Overcast
10:15 PM 19.4 °F 1.8 °F 5.7 °F 55% 29.92 in 10.0 mi NW 25.3 mph 35.7 mph N/A   Overcast
10:35 PM 19.2 °F 4.7 °F 7.2 °F 59% 29.94 in 10.0 mi WNW 16.1 mph 34.5 mph N/A   Overcast
10:55 PM 18.5 °F 2.9 °F 0.9 °F 46% 29.96 in 10.0 mi NW 18.4 mph 36.8 mph N/A   Scattered Clouds
11:15 PM 17.4 °F 1.0 °F 1.2 °F 49% 29.98 in 10.0 mi NW 19.6 mph 29.9 mph N/A   Clear
11:35 PM 16.3 °F -0.8 °F 0.7 °F 50% 29.99 in 10.0 mi NW 20.7 mph 33.4 mph N/A   Clear
11:55 PM 15.1 °F -1.1 °F -3.3 °F 44% 30.02 in 10.0 mi NW 17.3 mph 34.5 mph N/A   Clear